Location: Azul
(36.7830°S, 59.8500°W)
Time: 02:30:49
(UTC-03:00)

HuskySat-1 - Pass Details

Date: 25 October 2021
Orbit: 443 x 456 km, 51.6° (Epoch: 04 December)

Event Time Altitude Azimuth Distance (km) Brightness Sun altitude
Rises 05:25:17 0° 240° (WSW) 2,488 ? -7.8°
Reaches altitude 10° 05:27:40 10° 253° (WSW) 1,604 ? -7.3°
Maximum altitude 05:30:43 26° 311° (NW) 937 ? -6.8°
Drops below altitude 10° 05:33:44 10° 9° (N) 1,578 ? -6.2°
Sets 05:36:03 0° 21° (NNE) 2,438 ? -5.7°
